Regional Weather Roundup
Issued by NWS Green Bay, WI

Home | Current Version | Previous Version | Text Only | Print | Product List | Glossary On
Versions: 1 2 3 4 5 6 7 8 9 10 11 12 13 14 15 16 17 18 19 20 21 22 23 24 25 26 27 28 29 30 31 32 33 34 35 36 37 38 39 40 41 42 43 44 45 46 47 48 49 50
000
ASUS43 KGRB 030500
RWRGRB

NORTH-CENTRAL AND NORTHEAST WISCONSIN REGIONAL WEATHER ROUNDUP
NATIONAL WEATHER SERVICE GREEN BAY WI
1200 AM CDT MON AUG 03 2015

WIZ005-009-010>012-018-019-030600-
NORTH CENTRAL WISCONSIN

CITY           SKY/WX    TMP DP  RH WIND       PRES   REMARKS
IRONWOOD       CLOUDY    61  52  72 NW6       29.72R
MANITOWISH WTR NOT AVBL
ARBOR VITAE    NOT AVBL
EAGLE RIVER    NOT AVBL
LAND O LAKES   NOT AVBL
RHINELANDER      N/A     57  54  89 W6        29.76R
PHILLIPS       PTCLDY    58  53  83 CALM      29.77R
ANTIGO         NOT AVBL
TOMAHAWK       NOT AVBL
MERRILL        NOT AVBL
$$

WIZ013-073-030600-
NORTHEAST WISCONSIN

CITY           SKY/WX    TMP DP  RH WIND       PRES   REMARKS
IRON MOUNTAIN  MOCLDY    58  54  86 CALM      29.69R
MARINETTE      PTCLDY    63  57  82 CALM      29.68R
OCONTO         CLOUDY    63  63 100 CALM      29.70R
$$

WIZ017-030-035>037-045-030600-
CENTRAL WISCONSIN

CITY           SKY/WX    TMP DP  RH WIND       PRES   REMARKS
MEDFORD        NOT AVBL
WAUSAU         MOCLDY    66  57  72 NW7       29.75R
MOSINEE        NOT AVBL
MARSHFIELD     PTCLDY    63  56  78 NW6       29.78R
WISC RAPIDS    CLEAR     65  56  72 CALM      29.78R
STEVENS POINT  NOT AVBL
WAUPACA        NOT AVBL
SHAWANO        NOT AVBL
CLINTONVILLE   PTCLDY    64  57  77 NW7       29.72R
$$

WIZ038-039-048-051-030600-
FOX VALLEY

CITY           SKY/WX    TMP DP  RH WIND       PRES   REMARKS
NWS GREEN BAY  MOCLDY    64  62  93 W7        29.71R
APPLETON       NOT AVBL
OSHKOSH        PTCLDY    66  62  87 W5        29.72R
FOND DU LAC    PTCLDY    65  63  93 SW5       29.72R
$$

WIZ022-050-052-030600-
EAST CENTRAL WISCONSIN

CITY           SKY/WX    TMP DP  RH WIND       PRES   REMARKS
STURGEON BAY   CLOUDY    64  59  82 W5        29.71R
MANITOWOC      NOT AVBL
SHEBOYGAN      PTCLDY    63  60  90 NW3       29.70R
$$

LMZ563-521-522-541>543-030600-
LAKESHORE

STATION/POSITION TIME  TEMP    WIND        PRES    VSBY  WAVE
                       AIR SEA DIR/SP/G                  HT/PER
                 (UTC) (F)     (DEG/KT/KT) (MB)    (MI)  (FT/S)
SHEBOYGAN LKSHOR 0400   68     290/  5/  6 1005.2R
KEWAUNEE LKSHORE 0400   63     300/  4/  6 1004.4R
ALGOMA MARINA    0412             CALM       N/A
NORTHPORT PIER   0400   65     220/  4/  6 1004.1S
N MID LAKE BUOY  0350   67 68  260/ 10/ 12 1003.2R         2/ 5
S GREEN BAY BUOY 0400   67 69  270/  6/  8 1006.3R
CHAMBERS ISLAND  0400   66     230/  3/  7 1004.7R
MENOMINEE LKSHOR 0400   66     270/  4/  8 1005.5R
$$


USA.gov is the U.S. government's official web portal to all federal, state and local government web resources and services.